Regional Weather Roundup
Issued by NWS Kansas City/Pleasant Hill, MO

Home | Current Version | Previous Version | Graphics & Text | Print | Product List | Glossary Off
Versions: 1 2 3 4 5 6 7 8 9 10 11 12 13 14 15 16 17 18 19 20 21 22 23 24 25 26 27 28 29 30 31 32 33 34 35 36 37 38 39 40 41 42 43 44 45 46 47 48 49 50

000
ASUS43 KEAX 210810
RWREAX

WEATHER ROUNDUP FOR EASTERN KANSAS AND NORTHWEST MISSOURI
NATIONAL WEATHER SERVICE KANSAS CITY/PLEASANT HILL MO
200 AM CST SAT JAN 21 2017

KSZ040-057-103>105-MOZ028-029-037-043-210900-
...KANSAS CITY METROPOLITAN AREA...

CITY           SKY/WX    TMP DP  RH WIND       PRES   REMARKS
K.C. INTL      CLOUDY    38  36  92 S10       29.41S WCI  31
K.C. DOWNTOWN  PTCLDY    40  39  97 CALM      29.42R FOG
LEES SUMMIT    CLEAR     42  39  89 S3        29.42S
OLATHE - IXD   CLEAR     35  35 100 S6        29.42F FOG     WCI  30
OLATHE - OJC   CLEAR     36  36 100 S5        29.42S FOG     WCI  32
LAWRENCE       FOG       35  35 100 W6        29.44R VSB 1   WCI  30

$$

MOZ001>008-011>017-020>025-030>033-038>040-044>046-053-054-210900-
...NORTHERN AND CENTRAL MISSOURI...

CITY           SKY/WX    TMP DP  RH WIND       PRES   REMARKS
ST. JOSEPH     FOG       35  32  88 CALM      29.42R VSB 1/4
MOSBY          FOG       41  41 100 SE3       29.42S VSB 1/4
WARRENSBURG    CLEAR     43  37  81 SE5       29.44R
WHITEMAN AFB   CLEAR     44  44 100 S9        29.43F
CLINTON        CLEAR     48  39  71 S10       29.46S
SEDALIA        CLEAR     45  38  76 S10       29.47F
WARSAW         NOT AVBL
CHILLICOTHE      N/A     44  44 100 SE5       29.44F
KIRKSVILLE     FOG       45  45 100 S9        29.45F VSB 1/4

$$

MOZ041-047>049-056>058-063>065-088>090-097-210900-
...EASTERN AND SOUTHERN MISSOURI...

CITY           SKY/WX    TMP DP  RH WIND       PRES   REMARKS
ST. LOUIS INTL PTCLDY    54  49  83 S7        29.57F
SPIRIT OF STL  CLEAR     48  46  93 CALM      29.55F
COLUMBIA       CLEAR     51  44  77 S15       29.50R
JEFFERSON CITY CLEAR     54  42  64 S6        29.51S
ROLLA          CLEAR     52  43  71 S13       29.54S
OSAGE BEACH    CLEAR     52  42  69 S9        29.53S
SPRINGFIELD    CLEAR     51  39  63 S14       29.53S
BRANSON        PTCLDY    57  39  51 S9        29.58S
JOPLIN         CLEAR     55  38  52 S14       29.51R
WEST PLAINS    CLEAR     53  45  74 S7        29.61F

$$

IAZ060-094-KSZ022-034>040-054-083-096-NEZ052-066-093-210900-
...KANSAS...SOUTHEAST NEBRASKA AND IOWA...

CITY           SKY/WX    TMP DP  RH WIND       PRES   REMARKS
TOPEKA         PTCLDY    41  38  89 SW5       29.43S
MANHATTAN      CLOUDY    43  42  97 SW6       29.44R FOG
EMPORIA        MOCLDY    39  39 100 W9        29.46R FOG     WCI  33
CHANUTE        CLEAR     43  36  76 SW9       29.49R
WICHITA        CLEAR     34  33  96 W8        29.50R WCI  27
OMAHA          CLOUDY    40  37  89 S3        29.39S FOG
LINCOLN        CLOUDY    40  40 100 W5        29.41R FOG
FALLS CITY     CLOUDY    45  44  97 SW7       29.41R FOG
LAMONI         FOG       45  45 100 S8        29.40S VSB 1/4
DES MOINES     FOG       43  42  97 SE6       29.41R VSB 1/2

$$




USA.gov is the U.S. government's official web portal to all federal, state and local government web resources and services.